Location: Çukurlu Da?
(37.0317°N, 29.9523°E)
Time: 22:12:30
(UTC+00:00)

Daily predictions for brighter satellites

Satellite Brightness Start Highest point End
(mag) Time Altitude Azimuth Time Altitude Azimuth Time Altitude Azimuth
Cosmos 2061 Rocket 4.3 15:50:50 10° N 15:56:54 45° ENE 16:02:51 10° SSE
Cosmos 1125 Rocket 4.3 15:56:37 10° N 16:01:06 29° ENE 16:05:34 10° SE
ATLAS 5 CENTAUR R/B 1.9 15:56:48 10° NNW 16:01:28 84° ENE 16:07:14 10° SSE
CZ-4 R/B 4.4 15:58:56 10° SSE 16:02:49 55° ENE 16:06:42 10° N
SeaSat 1 2.5 16:01:22 10° SE 16:06:09 60° ENE 16:10:59 10° NNW
Cosmos 1315 Rocket 2.6 16:02:48 10° N 16:06:36 72° E 16:10:22 10° SSE
YAOGAN 1 2.9 16:02:39 10° SE 16:06:37 40° ENE 16:10:36 10° N
Cosmos 1455 Rocket 4.3 16:06:02 10° NNE 16:09:03 19° ENE 16:12:05 10° ESE
SEDSat Delta rocket 4.0 16:05:19 10° WSW 16:09:13 36° S 16:12:56 10° ESE
USA 234 3.3 16:02:55 10° ESE 16:09:25 70° NE 16:15:56 10° NW
Spot 4 Rocket 4.5 16:06:58 10° SE 16:11:39 38° ENE 16:16:21 10° N
SAR-Lupe-4 3.5 16:10:39 10° SSE 16:14:11 69° ENE 16:17:44 10° N
BREEZE-M DEB (TANK) 3.7 16:11:52 10° S 16:14:30 26° ESE 16:20:18 10° ENE
Radarsat Rocket 4.2 16:10:04 10° SE 16:15:32 44° ENE 16:21:17 10° N
Cosmos 2344 4.4 16:08:25 10° S 16:15:39 30° ESE 16:21:51 10° NE
Atlas Centaur 2 3.4 16:08:30 10° WSW 16:16:10 51° S 16:22:50 10° ESE
ARIANE 5 R/B 3.3 16:12:08 10° S 16:17:10 58° WSW 16:22:12 10° NNW
FALCON 9 R/B 4.5 16:11:31 10° WSW 16:17:38 38° S 16:37:23 10° ESE
PSLV R/B 4.1 16:14:17 10° SE 16:17:56 31° ENE 16:21:34 10° N
Cosmos 2221 Rocket 3.5 16:14:40 10° S 16:19:05 75° E 16:23:34 10° N
Cosmos 773 Rocket 4.5 16:14:54 10° SSE 16:19:44 39° E 16:24:36 10° NE
COSMO-SKYMED 1 2.3 16:19:01 10° NNE 16:23:07 72° ESE 16:27:12 10° S
USA 306 2.9 16:21:42 10° NNW 16:23:07 15° NNE 16:23:21 14° NE
Okean 1 Rocket 3.0 16:19:06 10° N 16:23:26 59° E 16:27:42 10° SSE
Okean 2 Rocket 3.0 16:21:11 10° N 16:25:35 75° E 16:29:55 10° SSE
CZ-2D R/B 3.2 16:27:32 10° SSE 16:31:22 66° ENE 16:35:17 10° N
Cosmos 2297 Rocket 2.3 16:26:40 10° SSW 16:32:19 86° WNW 16:38:01 10° NNE
Cosmos 836 Rocket 4.4 16:31:45 10° S 16:36:58 72° ESE 16:42:14 10° NNE
Meteor 2-1 Rocket 4.3 16:32:26 10° N 16:38:18 90° W 16:44:13 10° S
Sich 1 Rocket 3.6 16:34:07 10° N 16:38:40 84° E 16:43:13 10° S
Cosmos 1025 Rocket 4.2 16:35:48 10° SSW 16:39:53 45° W 16:44:03 10° N
Resurs 01 Rocket 1.9 16:38:01 10° SE 16:42:11 45° ENE 16:46:22 10° N
Haruka 4.1 16:34:08 10° WSW 16:42:55 42° S 16:45:33 18° ESE
Tiangong -2.0 16:41:55 10° W 16:45:05 66° NNW 16:46:31 29° ENE
Resurs 1-3 4.0 16:41:08 10° S 16:45:23 65° W 16:49:40 10° NNW
Celestis-02/Orion 38 4.5 16:46:22 10° SSE 16:51:27 81° ENE 16:56:40 10° NNW
CRYOSAT 2 4.3 16:54:57 10° N 16:59:52 82° E 17:04:44 10° S
Cosmos 2263 Rocket 2.6 16:57:20 10° S 17:02:32 39° ESE 17:04:53 27° ENE
Cosmos 1980 3.6 17:01:18 10° NNW 17:06:58 77° ENE 17:12:35 10° SSE
Helios 1A Rocket 2.1 17:06:13 38° NNE 17:07:19 76° ESE 17:10:34 10° S
Meteor 1-27 4.2 17:01:40 10° N 17:07:29 78° E 17:13:18 10° SSE
COSMOS 2428 3.9 17:02:16 10° NW 17:07:40 44° WSW 17:13:02 10° S
Cosmos 2237 Rocket 2.1 17:06:40 10° NNW 17:12:23 79° ENE 17:18:03 10° SSE
SJ-6B 2.3 17:12:28 69° E 17:12:29 69° ENE 17:15:55 10° N
Cosmos 2285 Rocket 4.2 17:07:28 10° NNW 17:13:53 76° WSW 17:20:13 10° S
CARTOSAT-1 4.3 17:10:32 10° S 17:14:37 52° W 17:18:44 10° NNW
Cosmos 1816 Rocket 4.3 17:10:49 10° S 17:16:52 69° E 17:23:01 10° NNE
Cosmos 44 Rocket 4.2 17:14:31 10° SW 17:19:13 47° NW 17:23:36 12° NNE
GOES 2 Rocket 4.4 17:16:37 10° SW 17:20:00 24° S 17:20:24 23° SSE
Delta 2 Rocket 3.3 17:19:29 10° W 17:22:00 51° WSW 17:22:00 51° WSW
Cosmos 2034 Rocket 4.1 17:21:30 10° N 17:27:28 50° E 17:28:50 42° ESE
Cosmos 1072 Rocket 4.4 17:22:36 10° N 17:28:52 87° E 17:34:59 10° S
Cosmos 2227 Rocket 2.5 17:25:55 10° SSW 17:31:30 66° WNW 17:36:55 11° NNE
SL-16 R/B 3.4 17:32:18 10° N 17:35:23 26° NNE 17:35:23 26° NNE
Cosmos 1975 Rocket 4.3 17:37:52 10° SSW 17:41:59 41° W 17:46:05 10° N
BREEZE-M DEB (TANK) 4.0 17:45:20 10° NW 17:50:11 85° SW 17:55:26 32° SE
Cosmos 1346 Rocket 4.4 17:49:03 10° SW 17:51:24 29° WSW 17:51:24 29° WSW
Gbstr 26 Del rocket 4.3 17:46:39 10° SW 17:53:23 77° NW 17:55:41 48° NE
Cosmos 1464 Rocket 4.4 17:49:41 10° NNW 17:55:56 62° W 18:02:05 10° S
BREEZE-M DEB (TANK) 4.4 17:39:23 10° SW 17:57:13 61° SE 17:57:36 60° SE
SPOT 5 4.2 18:00:21 32° NNW 18:00:21 32° NNW 18:03:01 10° NNW
Cosmos 2228 4.3 17:56:32 10° NNW 18:00:26 38° W 18:00:41 38° W
Atlas Centaur 2 3.1 17:57:34 10° W 18:04:32 43° SSW 18:04:56 43° S
H-2A R/B 4.1 17:29:24 10° W 18:09:47 53° SSW 18:11:34 46° SSE
CSL-04 Rocket 4.3 18:11:33 48° NW 18:11:33 48° NW 18:15:28 10° NNW
BREEZE-M (TANK) 3.8 18:07:47 10° NW 18:11:46 87° SW 18:12:02 83° SSE
Cosmos 2344 4.3 18:21:59 10° WSW 18:29:43 46° NW 18:32:55 30° N
NOSS 3-4 (A) 4.5 18:29:35 10° NW 18:36:37 55° WSW 18:37:51 50° SSW
NOSS 3-4 (C) 4.5 18:29:51 10° NW 18:36:55 55° WSW 18:38:02 51° SW
Cosmos 2263 Rocket 4.0 18:41:42 10° WSW 18:46:29 28° WNW 18:46:40 27° NW
